FW7576 Weather Reports


time (UTC)temp
F
wind
direction
speed
knots
gust
knots
rain 1hr
in
rain 24hr
in
rain mn
in
humidity
%
barometer
mb
20220627201533 73 211 3.5 12.2 0.00 0.00 0.00 34 1023.2
20220627200034 73 312 1.7 10.4 0.00 0.00 0.00 35 1023.4
20220627194527 73 2 3.5 9.6 0.00 0.00 0.00 33 1023.5
20220627193032 73 17 4.3 10.4 0.00 0.00 0.00 35 1023.6
20220627191523 72 339 4.3 11.3 0.00 0.00 0.00 37 1023.7
20220627190039 72 316 5.2 8.7 0.00 0.00 0.00 37 1023.7
20220627184526 72 323 5.2 13.0 0.00 0.00 0.00 37 1023.9
20220627183027 72 24 4.3 10.4 0.00 0.00 0.00 37 1024.0
20220627181525 71 297 3.5 9.6 0.00 0.00 0.00 37 1024.0
20220627180026 71 233 5.2 10.4 0.00 0.00 0.00 37 1024.0
20220627174528 71 307 3.5 9.6 0.00 0.00 0.00 39 1024.1
20220627173033 70 314 2.6 12.2 0.00 0.00 0.00 39 1024.2
20220627171539 69 329 6.1 14.8 0.00 0.00 0.00 39 1024.4
20220627170040 69 298 7.0 14.8 0.00 0.00 0.00 38 1024.3
20220627164531 69 295 4.3 8.7 0.00 0.00 0.00 41 1024.2
20220627163027 68 326 6.1 13.0 0.00 0.00 0.00 39 1024.2
20220627161534 68 12 4.3 10.4 0.00 0.00 0.00 44 1024.2
20220627160034 68 285 3.5 13.9 0.00 0.00 0.00 45 1024.2
20220627154538 67 291 7.0 12.2 0.00 0.00 0.00 44 1024.1
20220627153040 67 330 5.2 11.3 0.00 0.00 0.00 44 1024.1
20220627151526 67 321 4.3 12.2 0.00 0.00 0.00 47 1024.1
20220627150040 67 148 2.6 8.7 0.00 0.00 0.00 50 1023.9
20220627144532 66 236 6.1 11.3 0.00 0.00 0.00 51 1023.9
20220627143037 66 300 2.6 7.0 0.00 0.00 0.00 52 1023.9
20220627141527 65 282 2.6 9.6 0.00 0.00 0.00 52 1023.9
20220627140035 64 291 4.3 8.7 0.00 0.00 0.00 55 1023.8
20220627134539 64 28 3.5 9.6 0.00 0.00 0.00 55 1023.7
20220627133038 63 338 2.6 10.4 0.00 0.00 0.00 59 1023.7
20220627131540 63 303 2.6 10.4 0.00 0.00 0.00 59 1023.6
20220627130040 62 295 4.3 7.8 0.00 0.00 0.00 59 1023.3
20220627124531 62 349 1.7 7.8 0.00 0.00 0.00 60 1023.1
20220627123039 61 304 3.5 8.7 0.00 0.00 0.00 61 1023.1
20220627121539 61 292 1.7 7.0 0.00 0.00 0.00 64 1023.0
20220627120039 60 314 2.6 7.0 0.00 0.00 0.00 65 1022.8
20220627114553 59 274 0.9 5.2 0.00 0.00 0.00 68 1022.8
20220627113045 58 293 0.9 2.6 0.00 0.00 0.00 70 1022.6
20220627111532 57 279 0.0 2.6 0.00 0.00 0.00 71 1022.5
20220627110039 57 243 0.0 2.6 0.00 0.00 0.00 72 1022.3
20220627104543 56 255 0.0 1.7 0.00 0.01 0.00 71 1022.2
20220627103037 57 355 0.9 4.3 0.00 0.01 0.00 70 1022.2
20220627101528 57 289 0.0 2.6 0.00 0.01 0.00 68 1022.1
20220627100041 58 244 0.9 2.6 0.00 0.01 0.00 67 1021.9
20220627094525 59 319 0.0 6.1 0.00 0.01 0.00 65 1021.9
20220627093031 59 250 2.6 6.1 0.00 0.01 0.00 62 1021.7
20220627091532 59 298 2.6 6.1 0.00 0.01 0.00 62 1021.6
20220627090033 60 241 1.7 5.2 0.00 0.01 0.00 64 1021.7
20220627084540 60 263 1.7 6.1 0.00 0.01 0.00 66 1021.7
20220627083044 60 245 1.7 5.2 0.00 0.01 0.00 65 1021.5
20220627081555 60 274 1.7 7.0 0.00 0.01 0.00 66 1021.5
20220627080034 59 243 0.0 4.3 0.00 0.01 0.00 69 1021.6
20220627074527 59 0 0.0 1.7 0.00 0.01 0.00 68 1021.4
20220627073039 60 0 0.0 1.7 0.00 0.01 0.00 67 1021.3
20220627071541 60 291 0.0 2.6 0.00 0.01 0.00 67 1021.2
20220627070101 60 0 0.0 1.7 0.00 0.01 0.00 67 1021.3
20220627064528 60 0 0.0 0.9 0.00 0.01 0.00 66 1021.3
20220627063034 60 257 0.0 2.6 0.00 0.01 0.00 64 1021.3
20220627061527 61 257 0.0 2.6 0.00 0.01 0.00 63 1021.2
20220627060043 61 0 0.0 1.7 0.00 0.01 0.00 62 1021.1
20220627054534 62 0 0.0 1.7 0.00 0.01 0.00 61 1021.2
20220627053039 62 202 0.9 3.5 0.00 0.01 0.00 61 1021.2
20220627051526 62 0 0.0 1.7 0.00 0.01 0.00 61 1021.1
20220627050043 62 305 0.0 0.9 0.00 0.01 0.00 61 1021.0
20220627044526 62 0 0.0 2.6 0.00 0.01 0.01 60 1020.9
20220627043034 62 0 0.0 1.7 0.00 0.01 0.01 59 1021.0
20220627041525 63 0 0.0 2.6 0.00 0.01 0.01 58 1020.9
20220627040040 63 252 0.9 2.6 0.00 0.01 0.01 57 1020.9
20220627034538 63 0 0.0 0.9 0.00 0.01 0.01 57 1020.8
20220627033030 64 0 0.0 0.0 0.00 0.01 0.01 56 1020.7
20220627031537 66 0 0.0 0.0 0.00 0.01 0.01 53 1020.7
20220627030029 66 0 0.0 1.7 0.00 0.01 0.01 51 1020.4
20220627024527 67 285 0.0 1.7 0.00 0.01 0.01 49 1020.3
20220627023032 68 0 0.9 5.2 0.00 0.01 0.01 48 1020.0
20220627021530 68 288 0.9 5.2 0.00 0.01 0.01 47 1019.7
20220627020031 69 315 2.6 6.1 0.00 0.01 0.01 46 1019.3
20220627014532 69 292 4.3 11.3 0.00 0.01 0.01 46 1019.1
20220627013037 70 281 3.5 14.8 0.00 0.01 0.01 45 1018.9
20220627011543 71 295 3.5 11.3 0.00 0.01 0.01 44 1018.6
20220627010027 72 0 2.6 9.6 0.00 0.01 0.01 44 1018.4
20220627004540 72 357 3.5 10.4 0.00 0.01 0.01 44 1018.4
20220627003043 73 323 5.2 13.9 0.00 0.01 0.01 43 1018.2
20220627001534 73 335 6.1 13.9 0.00 0.01 0.01 43 1018.0
20220627000027 73 299 6.1 13.9 0.00 0.01 0.01 43 1018.0
20220626234536 74 297 6.1 16.5 0.00 0.01 0.01 42 1017.7
20220626233041 74 332 6.1 17.4 0.00 0.01 0.01 43 1017.7
20220626231552 74 318 5.2 14.8 0.00 0.01 0.01 43 1017.7
20220626230041 74 289 6.1 22.6 0.00 0.01 0.01 44 1017.6
20220626224543 75 328 4.3 17.4 0.00 0.01 0.01 45 1017.5
20220626223034 75 303 7.0 15.6 0.00 0.01 0.01 44 1017.4
20220626221541 75 236 8.7 16.5 0.00 0.01 0.01 43 1017.3
20220626220038 76 303 6.1 13.0 0.00 0.01 0.01 44 1017.1
20220626214544 75 267 4.3 18.2 0.00 0.01 0.01 45 1017.3
20220626213039 76 271 5.2 13.9 0.00 0.01 0.01 44 1017.4
20220626211537 76 302 7.8 15.6 0.00 0.01 0.01 44 1017.2
20220626210055 76 243 7.0 19.1 0.00 0.01 0.01 45 1017.3
20220626204544 76 26 5.2 13.9 0.00 0.01 0.01 44 1017.2
20220626203033 76 315 5.2 13.0 0.00 0.01 0.01 46 1017.0